W9GWP Weather Reports


Display with metric or nautical units.
time (UTC)temp
F
wind
direction
speed
MPH
gust
MPH
rain 1hr
in
rain 24hr
in
rain mn
in
humidity
%
barometer
mb
20260506153311 51 198 6.0 11.0 0.00 0.00 0.00 45 1042.8
20260506151810 52 159 4.0 9.0 0.00 0.00 0.00 44 1043.0
20260506150306 51 355 5.0 8.0 0.00 0.00 0.00 49 1042.7
20260506144803 51 235 9.0 10.0 0.00 0.00 0.00 46 1043.1
20260506143300 51 268 6.0 8.0 0.00 0.00 0.00 47 1043.0
20260506141759 50 273 3.0 6.0 0.00 0.00 0.00 49 1042.9
20260506140257 50 239 4.0 7.0 0.00 0.00 0.00 49 1042.8
20260506134753 50 276 2.0 4.0 0.00 0.00 0.00 50 1042.7
20260506133249 49 240 2.0 6.0 0.00 0.00 0.00 52 1042.3
20260506131747 50 180 1.0 4.0 0.00 0.00 0.00 52 1042.5
20260506130243 48 180 1.0 5.0 0.00 0.00 0.00 58 1042.3
20260506124742 48 172 2.0 3.0 0.00 0.00 0.00 63 1042.2
20260506123241 46 249 0.0 3.0 0.00 0.00 0.00 68 1042.2
20260506121739 46 187 0.0 1.0 0.00 0.00 0.00 72 1041.9
20260506120236 43 173 0.0 2.0 0.00 0.00 0.00 78 1041.6
20260506114736 41 114 0.0 1.0 0.00 0.00 0.00 87 1041.7
20260506113234 38 105 0.0 1.0 0.00 0.00 0.00 92 1041.7
20260506111731 36 174 0.0 1.0 0.00 0.00 0.00 93 1041.6
20260506110229 35 165 0.0 1.0 0.00 0.00 0.00 93 1041.5
20260506104726 35 151 0.0 0.0 0.00 0.00 0.00 93 1041.3
20260506103223 35 105 0.0 1.0 0.00 0.00 0.00 92 1041.1
20260506101721 35 114 0.0 0.0 0.00 0.00 0.00 92 1040.9
20260506100220 36 151 0.0 0.0 0.00 0.00 0.00 91 1040.8
20260506094717 36 151 0.0 0.0 0.00 0.00 0.00 91 1040.9
20260506093216 37 151 0.0 0.0 0.00 0.00 0.00 90 1041.0
20260506091715 36 151 0.0 0.0 0.00 0.00 0.00 89 1041.0
20260506090212 36 144 0.0 2.0 0.00 0.00 0.00 87 1041.1
20260506084708 36 154 0.0 0.0 0.00 0.00 0.00 86 1041.0
20260506083205 37 106 0.0 0.0 0.00 0.00 0.00 83 1040.9
20260506081700 37 106 0.0 0.0 0.00 0.00 0.00 81 1040.6
20260506080157 37 106 0.0 0.0 0.00 0.00 0.00 80 1040.6
20260506073153 38 90 0.0 0.0 0.00 0.00 0.00 75 1040.5
20260506071651 39 90 1.0 1.0 0.00 0.00 0.00 72 1040.2
20260506070148 40 145 0.0 0.0 0.00 0.00 0.00 70 1040.4
20260506061638 42 105 0.0 0.0 0.00 0.00 0.00 62 1040.5
20260506060137 44 85 2.0 2.0 0.00 0.00 0.00 61 1040.3
20260506050128 47 75 0.0 5.0 0.00 0.00 0.00 55 1040.4
20260506044625 47 345 0.0 3.0 0.00 0.00 0.00 55 1040.4
20260506043123 47 221 2.0 6.0 0.00 0.00 0.00 55 1040.4
20260506041618 47 82 0.0 1.0 0.00 0.00 0.00 55 1040.0
20260506040114 48 0 0.0 1.0 0.00 0.00 0.00 53 1040.0
20260506034611 49 23 0.0 0.0 0.00 0.00 0.00 51 1039.9
20260506033108 50 0 1.0 2.0 0.00 0.00 0.00 50 1039.6
20260506031605 50 6 0.0 2.0 0.00 0.00 0.00 49 1039.4
20260506030103 50 105 0.0 1.0 0.00 0.00 0.00 50 1039.2
20260506024559 51 0 0.0 2.0 0.00 0.00 0.00 50 1039.4
20260506023055 51 279 0.0 1.0 0.00 0.00 0.00 50 1039.0
20260506021552 51 326 0.0 2.0 0.00 0.00 0.00 49 1038.9
20260506020050 50 240 0.0 1.0 0.00 0.00 0.00 53 1038.6
20260506014548 51 246 0.0 0.0 0.00 0.00 0.00 50 1038.5
20260506013044 51 246 0.0 0.0 0.00 0.00 0.00 49 1038.3
20260506011540 52 180 0.0 0.0 0.00 0.00 0.00 47 1038.1
20260506010038 53 255 0.0 2.0 0.00 0.00 0.00 46 1037.7
20260506004534 53 243 0.0 3.0 0.00 0.00 0.00 44 1037.8
20260506003029 54 265 2.0 3.0 0.00 0.00 0.00 43 1037.3
20260506001524 54 310 3.0 3.0 0.00 0.00 0.00 42 1037.5
20260506000022 54 279 4.0 8.0 0.00 0.00 0.00 40 1037.5
20260505234519 55 257 1.0 7.0 0.00 0.00 0.00 38 1037.5
20260505233017 55 259 3.0 12.0 0.00 0.00 0.00 39 1037.6
20260505231514 55 254 2.0 4.0 0.00 0.00 0.00 40 1037.4
20260505230012 55 262 2.0 6.0 0.00 0.00 0.00 40 1037.4
20260505224508 56 263 4.0 7.0 0.00 0.00 0.00 39 1037.7
20260505223004 56 280 2.0 5.0 0.00 0.00 0.00 40 1037.7
20260505221459 55 273 3.0 6.0 0.00 0.00 0.00 39 1037.6
20260505215956 55 270 5.0 6.0 0.00 0.00 0.00 38 1037.8
20260505214455 56 278 5.0 12.0 0.00 0.00 0.00 39 1037.7
20260505212952 56 277 1.0 5.0 0.00 0.00 0.00 37 1037.8
20260505211449 56 267 3.0 8.0 0.00 0.00 0.00 38 1037.6
20260505205944 56 281 6.0 6.0 0.00 0.00 0.00 35 1037.9
20260505204443 56 225 3.0 9.0 0.00 0.00 0.00 36 1037.9
20260505202938 56 228 4.0 7.0 0.00 0.00 0.00 38 1038.0
20260505201434 56 225 0.0 8.0 0.00 0.00 0.00 36 1037.9
20260505195930 56 219 4.0 13.0 0.00 0.00 0.00 35 1037.8
20260505194428 57 254 7.0 11.0 0.00 0.00 0.00 33 1038.0
20260505192924 56 172 0.0 6.0 0.00 0.00 0.00 37 1038.1
20260505191424 56 253 7.0 13.0 0.00 0.00 0.00 35 1038.3
20260505185922 56 267 4.0 8.0 0.00 0.00 0.00 36 1038.5
20260505184419 56 270 5.0 6.0 0.00 0.00 0.00 39 1038.0
20260505182915 56 217 9.0 9.0 0.00 0.00 0.00 35 1038.0
20260505181412 57 278 7.0 12.0 0.00 0.00 0.00 37 1037.9
20260505175907 56 273 4.0 9.0 0.00 0.00 0.00 36 1037.8
20260505174404 56 253 4.0 9.0 0.00 0.00 0.00 37 1037.8
20260505172859 54 237 8.0 16.0 0.00 0.00 0.00 37 1037.9
20260505171359 53 256 5.0 11.0 0.00 0.00 0.00 39 1037.7
20260505165854 54 280 5.0 7.0 0.00 0.00 0.00 39 1038.1
20260505164354 53 288 5.0 10.0 0.00 0.00 0.00 41 1037.7
20260505162850 53 317 3.0 7.0 0.00 0.00 0.00 42 1037.7
20260505161345 52 218 2.0 9.0 0.00 0.00 0.00 42 1037.8